sat.trackr.live / text

‹ back to catalog

STARLINK-37489

NORAD 69251 · 2026-117P

PAYLOAD ACTIVE UNKNOWN

§ Identity

Operator
Country
US
Launch date
2026-05-29
Launch site
AFETR
Launch vehicle
Mass (kg)
RCS (m²)

Purposes: comms

External: N2YO · Heavens-Above · Gunter

§ Orbital elements

Epoch: 2026-09-20T00:05:00.945024Z

Period
93.85 min
Inclination
53.1588°
Eccentricity
0.0000898
Mean motion
15.34402234 rev/d
Perigee alt
462.1 km
Apogee alt
463.3 km
Semi-major
6,840.8 km
B*
3.9068e-4
RAAN
155.8618°
Arg perigee
82.4924°
Mean anomaly
277.6180°
Rev number
1,759

§ Raw data

STARLINK-374891 69251U 26117P   26263.00348316  .00012847  00000+0  39068-3 0  99942 69251  53.1588 155.8618 0000898  82.4924 277.6180 15.34402234 17594

JSON: /api/v1/satellites/69251 · /tle

For live sub-satellite position, see the globe view (requires WebGL).

§ Visibility from observer

Set your observer location to see the next 7 days of passes ≥ 10°. The values pass through the URL so the page stays shareable.

No JS? Fill the form by hand. The geolocation button needs JavaScript.